{"data":{"norad_id":67019,"epoch":"2026-09-20T13:37:10.576992Z","epoch_age_seconds":75630,"freshness":"FRESH","line1":"1 67019U 25293S   26263.56748353  .00002657  00000+0  23044-3 0  9999","line2":"2 67019  70.0016 323.3013 0003779 271.4724  88.6002 14.98323516 44078","mean_motion":14.98323516,"eccentricity":0.0003779,"inclination_deg":70.0016,"raan_deg":323.3013,"arg_perigee_deg":271.4724,"mean_anomaly_deg":88.6002,"bstar":0.00023044,"rev_number":4407,"period_min":96.107415029052,"perigee_km":569.44945678098,"apogee_km":574.70242772273,"semimajor_km":6950.2129422519,"source":"CELESTRAK","updated_at":"2026-09-21T09:00:36.071636Z"}}